Time,TemperatureF,DewpointF,PressureIn,WindDirection,WindDirectionDegrees,WindSpeedMPH,WindSpeedGustMPH,Humidity,HourlyPrecipIn,Conditions,Clouds,dailyrainin,SoftwareType,DateUTC
2013-05-25 00:02:00,46.4,34.1,30.17,North,353,0.0,0.0,62,0.00,,CLR,0.00,VWS V14.01,2013-05-25 04:02:00,
2013-05-25 00:07:00,46.2,33.5,30.17,North,353,0.0,0.0,61,0.00,,CLR,0.00,VWS V14.01,2013-05-25 04:07:00,
2013-05-25 00:13:00,46.1,33.8,30.17,North,353,0.0,0.0,62,0.00,,CLR,0.00,VWS V14.01,2013-05-25 04:13:00,
2013-05-25 00:22:00,45.8,33.5,30.18,North,353,0.0,0.0,62,0.00,,CLR,0.00,VWS V14.01,2013-05-25 04:22:00,
2013-05-25 00:27:00,45.5,33.7,30.18,North,353,0.0,0.0,63,0.00,,CLR,0.00,VWS V14.01,2013-05-25 04:27:00,
2013-05-25 00:32:00,45.1,34.0,30.18,North,353,0.0,0.0,65,0.00,,CLR,0.00,VWS V14.01,2013-05-25 04:32:00,
2013-05-25 00:37:00,44.8,34.2,30.18,North,353,0.0,0.0,66,0.00,,CLR,0.00,VWS V14.01,2013-05-25 04:37:00,
2013-05-25 00:42:00,44.6,33.6,30.18,North,353,0.0,0.0,65,0.00,,CLR,0.00,VWS V14.01,2013-05-25 04:42:00,
2013-05-25 00:47:00,44.5,33.5,30.18,North,354,0.0,0.0,65,0.00,,CLR,0.00,VWS V14.01,2013-05-25 04:47:00,
2013-05-25 00:52:00,44.2,34.0,30.18,North,354,0.0,0.0,67,0.00,,CLR,0.00,VWS V14.01,2013-05-25 04:52:00,
2013-05-25 00:57:00,44.1,33.9,30.18,North,0,0.0,0.0,67,0.00,,CLR,0.00,VWS V14.01,2013-05-25 04:57:00,
2013-05-25 01:02:00,44.1,33.5,30.18,North,0,0.0,0.0,66,0.00,,CLR,0.00,VWS V14.01,2013-05-25 05:02:00,
2013-05-25 01:07:00,43.8,33.6,30.18,North,0,0.0,0.0,67,0.00,,CLR,0.00,VWS V14.01,2013-05-25 05:07:00,
2013-05-25 01:17:00,43.3,33.8,30.18,North,0,0.0,0.0,69,0.00,,CLR,0.00,VWS V14.01,2013-05-25 05:17:00,
2013-05-25 01:22:00,43.2,34.1,30.18,North,0,0.0,0.0,70,0.00,,CLR,0.00,VWS V14.01,2013-05-25 05:22:00,
2013-05-25 01:27:00,43.1,34.0,30.18,North,0,0.0,0.0,70,0.00,,CLR,0.00,VWS V14.01,2013-05-25 05:27:00,
2013-05-25 01:32:00,42.9,34.2,30.17,North,0,0.0,0.0,71,0.00,,CLR,0.00,VWS V14.01,2013-05-25 05:32:00,
2013-05-25 01:37:00,42.8,34.4,30.17,North,0,0.0,0.0,72,0.00,,CLR,0.00,VWS V14.01,2013-05-25 05:37:00,
2013-05-25 01:42:00,42.6,34.2,30.17,North,0,0.0,0.0,72,0.00,,CLR,0.00,VWS V14.01,2013-05-25 05:42:00,
2013-05-25 01:52:00,42.5,34.1,30.18,North,0,0.0,0.0,72,0.00,,CLR,0.00,VWS V14.01,2013-05-25 05:52:00,
2013-05-25 01:57:00,42.3,33.9,30.18,North,0,0.0,0.0,72,0.00,,CLR,0.00,VWS V14.01,2013-05-25 05:57:00,
2013-05-25 02:02:00,42.3,34.3,30.18,North,0,0.0,0.0,73,0.00,,CLR,0.00,VWS V14.01,2013-05-25 06:02:00,
2013-05-25 02:12:00,42.1,34.4,30.18,North,0,0.0,0.0,74,0.00,,CLR,0.00,VWS V14.01,2013-05-25 06:12:00,
2013-05-25 02:22:00,41.9,34.2,30.17,North,0,0.0,0.0,74,0.00,,CLR,0.00,VWS V14.01,2013-05-25 06:22:00,
2013-05-25 02:27:00,41.8,34.1,30.17,North,0,0.0,0.0,74,0.00,,CLR,0.00,VWS V14.01,2013-05-25 06:27:00,
2013-05-25 02:32:00,41.6,33.9,30.17,North,0,0.0,0.0,74,0.00,,CLR,0.00,VWS V14.01,2013-05-25 06:32:00,
2013-05-25 02:37:00,41.3,34.0,30.17,North,0,0.0,0.0,75,0.00,,CLR,0.00,VWS V14.01,2013-05-25 06:37:00,
2013-05-25 02:47:00,40.8,34.2,30.17,North,359,0.0,0.0,77,0.00,,CLR,0.00,VWS V14.01,2013-05-25 06:47:00,
2013-05-25 02:52:00,40.8,34.5,30.17,North,359,0.0,0.0,78,0.00,,CLR,0.00,VWS V14.01,2013-05-25 06:52:00,
2013-05-25 03:02:00,40.8,34.8,30.17,North,359,0.0,0.0,79,0.00,,CLR,0.00,VWS V14.01,2013-05-25 07:02:00,
2013-05-25 03:07:00,40.6,34.6,30.17,North,359,0.0,0.0,79,0.00,,CLR,0.00,VWS V14.01,2013-05-25 07:07:00,
2013-05-25 03:12:00,40.6,34.6,30.17,North,359,0.0,0.0,79,0.00,,CLR,0.00,VWS V14.01,2013-05-25 07:12:00,
2013-05-25 03:17:00,40.2,34.5,30.16,North,359,0.0,0.0,80,0.00,,CLR,0.00,VWS V14.01,2013-05-25 07:17:00,
2013-05-25 03:27:00,39.6,34.3,30.16,North,359,0.0,0.0,81,0.00,,CLR,0.00,VWS V14.01,2013-05-25 07:27:00,
2013-05-25 03:32:00,39.5,34.5,30.16,North,359,0.0,0.0,82,0.00,,CLR,0.00,VWS V14.01,2013-05-25 07:32:00,
2013-05-25 03:37:00,39.3,34.3,30.16,North,359,0.0,0.0,82,0.00,,CLR,0.00,VWS V14.01,2013-05-25 07:37:00,
2013-05-25 03:42:00,39.2,34.2,30.16,North,359,0.0,0.0,82,0.00,,CLR,0.00,VWS V14.01,2013-05-25 07:42:00,
2013-05-25 03:47:00,39.3,34.6,30.16,North,359,0.0,0.0,83,0.00,,CLR,0.00,VWS V14.01,2013-05-25 07:47:00,
2013-05-25 03:52:00,39.6,35.2,30.16,North,359,0.0,0.0,84,0.00,,CLR,0.00,VWS V14.01,2013-05-25 07:52:00,
2013-05-25 04:02:00,39.5,35.1,30.16,North,359,0.0,0.0,84,0.00,,CLR,0.00,VWS V14.01,2013-05-25 08:02:00,
2013-05-25 04:12:00,38.9,34.5,30.16,North,359,0.0,0.0,84,0.00,,CLR,0.00,VWS V14.01,2013-05-25 08:12:00,
2013-05-25 04:17:00,38.9,34.8,30.16,North,359,0.0,0.0,85,0.00,,CLR,0.00,VWS V14.01,2013-05-25 08:17:00,
2013-05-25 04:27:00,38.8,34.7,30.16,North,359,0.0,0.0,85,0.00,,CLR,0.00,VWS V14.01,2013-05-25 08:27:00,
2013-05-25 04:32:00,38.8,34.7,30.14,NNE,14,0.0,0.0,85,0.00,,CLR,0.00,VWS V14.01,2013-05-25 08:32:00,
2013-05-25 04:37:00,38.8,35.0,30.14,NNE,17,0.0,0.0,86,0.00,,CLR,0.00,VWS V14.01,2013-05-25 08:37:00,
2013-05-25 04:42:00,38.8,35.0,30.14,NNE,17,0.0,0.0,86,0.00,,CLR,0.00,VWS V14.01,2013-05-25 08:42:00,
2013-05-25 04:47:00,38.8,35.0,30.14,NNE,17,0.0,0.0,86,0.00,,CLR,0.00,VWS V14.01,2013-05-25 08:47:00,
2013-05-25 04:57:00,38.6,34.8,30.14,NNE,17,0.0,0.0,86,0.00,,CLR,0.00,VWS V14.01,2013-05-25 08:57:00,
2013-05-25 05:02:00,38.8,35.0,30.14,NNE,17,0.0,0.0,86,0.00,,CLR,0.00,VWS V14.01,2013-05-25 09:02:00,
2013-05-25 05:07:00,38.8,35.0,30.14,NNE,17,0.0,0.0,86,0.00,,CLR,0.00,VWS V14.01,2013-05-25 09:07:00,
2013-05-25 05:17:00,38.5,35.0,30.14,NNE,17,0.0,0.0,87,0.00,,CLR,0.00,VWS V14.01,2013-05-25 09:17:00,
2013-05-25 05:27:00,38.5,35.0,30.14,NNE,17,0.0,0.0,87,0.00,,CLR,0.00,VWS V14.01,2013-05-25 09:27:00,
2013-05-25 05:32:00,38.8,35.3,30.14,NNE,17,0.0,0.0,87,0.00,,CLR,0.00,VWS V14.01,2013-05-25 09:32:00,
2013-05-25 05:37:00,38.8,35.3,30.14,NNE,17,0.0,0.0,87,0.00,,CLR,0.00,VWS V14.01,2013-05-25 09:37:00,
2013-05-25 05:42:00,38.6,35.1,30.14,NNE,17,0.0,0.0,87,0.00,,CLR,0.00,VWS V14.01,2013-05-25 09:42:00,
2013-05-25 05:47:00,38.8,35.3,30.14,NNE,17,0.0,0.0,87,0.00,,CLR,0.00,VWS V14.01,2013-05-25 09:47:00,
2013-05-25 05:52:00,38.6,35.1,30.14,NNE,17,0.0,0.0,87,0.00,,CLR,0.00,VWS V14.01,2013-05-25 09:52:00,
2013-05-25 05:57:00,38.6,35.1,30.14,NNE,17,0.0,0.0,87,0.00,,CLR,0.00,VWS V14.01,2013-05-25 09:57:00,
2013-05-25 06:02:00,38.5,35.0,30.15,NNE,17,0.0,0.0,87,0.00,,CLR,0.00,VWS V14.01,2013-05-25 10:02:00,
2013-05-25 06:12:00,38.5,35.3,30.15,NNE,17,0.0,0.0,88,0.00,,CLR,0.00,VWS V14.01,2013-05-25 10:12:00,
2013-05-25 06:17:00,38.6,35.4,30.16,NNE,17,0.0,0.0,88,0.00,,CLR,0.00,VWS V14.01,2013-05-25 10:17:00,
2013-05-25 06:22:00,38.5,35.3,30.16,NNE,17,0.0,0.0,88,0.00,,CLR,0.00,VWS V14.01,2013-05-25 10:22:00,
2013-05-25 06:27:00,38.6,35.4,30.16,NNE,17,0.0,0.0,88,0.00,,CLR,0.00,VWS V14.01,2013-05-25 10:27:00,
2013-05-25 06:32:00,38.8,35.6,30.16,NNE,17,0.0,0.0,88,0.00,,CLR,0.00,VWS V14.01,2013-05-25 10:32:00,
2013-05-25 06:37:00,38.9,35.7,30.16,NNE,17,0.0,0.0,88,0.00,,CLR,0.00,VWS V14.01,2013-05-25 10:37:00,
2013-05-25 06:42:00,38.9,35.7,30.16,NNE,17,0.0,0.0,88,0.00,,CLR,0.00,VWS V14.01,2013-05-25 10:42:00,
2013-05-25 06:52:00,39.1,35.8,30.17,NNE,17,0.0,0.0,88,0.00,,CLR,0.00,VWS V14.01,2013-05-25 10:52:00,
2013-05-25 06:57:00,39.1,36.1,30.17,NNE,18,0.0,0.0,89,0.00,,CLR,0.00,VWS V14.01,2013-05-25 10:57:00,
2013-05-25 07:02:00,39.3,36.3,30.17,NNE,18,0.0,0.0,89,0.00,,CLR,0.00,VWS V14.01,2013-05-25 11:02:00,
2013-05-25 07:12:00,39.9,36.9,30.17,NNE,21,0.0,0.0,89,0.00,,CLR,0.00,VWS V14.01,2013-05-25 11:12:00,
2013-05-25 07:17:00,40.2,37.2,30.18,NNE,21,0.0,0.0,89,0.00,,CLR,0.00,VWS V14.01,2013-05-25 11:17:00,
2013-05-25 07:27:00,40.5,37.5,30.18,NNE,21,0.0,0.0,89,0.00,,CLR,0.00,VWS V14.01,2013-05-25 11:27:00,
2013-05-25 07:32:00,40.6,37.6,30.19,NNE,21,0.0,0.0,89,0.00,,CLR,0.00,VWS V14.01,2013-05-25 11:32:00,
2013-05-25 07:37:00,40.9,37.9,30.19,NNE,21,0.0,0.0,89,0.00,,CLR,0.00,VWS V14.01,2013-05-25 11:37:00,
2013-05-25 07:47:00,41.3,38.0,30.19,NNE,21,0.0,0.0,88,0.00,,CLR,0.00,VWS V14.01,2013-05-25 11:47:00,
2013-05-25 07:52:00,41.6,38.3,30.19,NNE,21,0.0,0.0,88,0.00,,CLR,0.00,VWS V14.01,2013-05-25 11:52:00,
2013-05-25 07:57:00,42.2,38.9,30.19,NNE,21,0.0,0.0,88,0.00,,CLR,0.00,VWS V14.01,2013-05-25 11:57:00,
2013-05-25 08:02:00,42.5,39.2,30.19,NNE,21,0.0,0.0,88,0.00,,CLR,0.00,VWS V14.01,2013-05-25 12:02:00,
2013-05-25 08:12:00,42.8,39.2,30.19,NNE,21,0.0,0.0,87,0.00,,CLR,0.00,VWS V14.01,2013-05-25 12:12:00,
2013-05-25 08:17:00,42.9,39.3,30.20,NNE,18,0.0,0.0,87,0.00,,CLR,0.00,VWS V14.01,2013-05-25 12:17:00,
2013-05-25 08:22:00,43.3,39.4,30.20,NNE,18,0.0,0.0,86,0.00,,CLR,0.00,VWS V14.01,2013-05-25 12:22:00,
2013-05-25 08:27:00,43.3,39.4,30.20,NNE,18,0.0,0.0,86,0.00,,CLR,0.00,VWS V14.01,2013-05-25 12:27:00,
2013-05-25 08:32:00,43.6,39.4,30.20,NNE,18,0.0,0.0,85,0.00,,CLR,0.00,VWS V14.01,2013-05-25 12:32:00,
2013-05-25 08:42:00,44.2,40.0,30.20,NNE,23,0.0,0.0,85,0.00,,CLR,0.00,VWS V14.01,2013-05-25 12:42:00,
2013-05-25 08:47:00,44.5,40.0,30.19,NE,41,0.0,0.0,84,0.00,,CLR,0.00,VWS V14.01,2013-05-25 12:47:00,
2013-05-25 08:52:00,44.6,40.1,30.19,ENE,61,0.0,0.0,84,0.00,,CLR,0.00,VWS V14.01,2013-05-25 12:52:00,
2013-05-25 08:57:00,44.9,40.4,30.19,ENE,66,0.0,0.0,84,0.00,,CLR,0.00,VWS V14.01,2013-05-25 12:57:00,
2013-05-25 09:07:00,45.4,40.2,30.20,ENE,62,0.0,0.0,82,0.00,,CLR,0.00,VWS V14.01,2013-05-25 13:07:00,
2013-05-25 09:12:00,46.0,40.8,30.20,ENE,62,0.0,0.0,82,0.00,,CLR,0.00,VWS V14.01,2013-05-25 13:12:00,
2013-05-25 09:17:00,46.5,41.0,30.21,ENE,62,0.0,0.0,81,0.00,,CLR,0.00,VWS V14.01,2013-05-25 13:17:00,
2013-05-25 09:22:00,46.8,40.6,30.21,ENE,62,0.0,0.0,79,0.00,,CLR,0.00,VWS V14.01,2013-05-25 13:22:00,
2013-05-25 09:32:00,48.3,41.8,30.20,ENE,62,0.0,0.0,78,0.00,,CLR,0.00,VWS V14.01,2013-05-25 13:32:00,
2013-05-25 09:37:00,49.1,41.5,30.20,ENE,62,0.0,0.0,75,0.00,,CLR,0.00,VWS V14.01,2013-05-25 13:37:00,
2013-05-25 09:47:00,50.5,42.2,30.20,ENE,62,0.0,0.0,73,0.00,,CLR,0.00,VWS V14.01,2013-05-25 13:47:00,
2013-05-25 09:57:00,51.7,41.9,30.20,ENE,62,0.0,0.0,69,0.00,,CLR,0.00,VWS V14.01,2013-05-25 13:57:00,
2013-05-25 10:02:00,53.2,42.2,30.20,ENE,62,0.0,0.0,66,0.00,,CLR,0.00,VWS V14.01,2013-05-25 14:02:00,
2013-05-25 10:12:00,55.1,41.5,30.20,ENE,69,0.0,0.0,60,0.00,,CLR,0.00,VWS V14.01,2013-05-25 14:12:00,
2013-05-25 10:17:00,55.3,40.8,30.20,ENE,78,0.0,0.0,58,0.00,,CLR,0.00,VWS V14.01,2013-05-25 14:17:00,
2013-05-25 10:22:00,55.6,41.5,30.20,East,89,0.0,0.0,59,0.00,,CLR,0.00,VWS V14.01,2013-05-25 14:22:00,
2013-05-25 10:32:00,55.3,40.8,30.20,ESE,102,0.0,0.0,58,0.00,,CLR,0.00,VWS V14.01,2013-05-25 14:32:00,
2013-05-25 10:37:00,55.1,40.6,30.20,ESE,102,0.0,0.0,58,0.00,,CLR,0.00,VWS V14.01,2013-05-25 14:37:00,
2013-05-25 10:42:00,55.0,40.5,30.20,ESE,103,0.0,0.0,58,0.00,,CLR,0.00,VWS V14.01,2013-05-25 14:42:00,
2013-05-25 10:47:00,55.1,40.6,30.20,ESE,103,0.0,0.0,58,0.00,,CLR,0.00,VWS V14.01,2013-05-25 14:47:00,
2013-05-25 10:52:00,55.3,41.2,30.20,ESE,103,0.0,0.0,59,0.00,,CLR,0.00,VWS V14.01,2013-05-25 14:52:00,
2013-05-25 11:02:00,57.0,40.5,30.18,ESE,102,0.0,0.0,54,0.00,,CLR,0.00,VWS V14.01,2013-05-25 15:02:00,
2013-05-25 11:07:00,56.9,39.5,30.18,ESE,102,0.0,0.0,52,0.00,,CLR,0.00,VWS V14.01,2013-05-25 15:07:00,
2013-05-25 11:17:00,57.8,40.8,30.18,East,100,0.0,0.0,53,0.00,,CLR,0.00,VWS V14.01,2013-05-25 15:17:00,
2013-05-25 11:22:00,58.9,39.8,30.18,East,100,0.0,0.0,49,0.00,,CLR,0.00,VWS V14.01,2013-05-25 15:22:00,
2013-05-25 11:27:00,58.9,40.3,30.18,East,100,0.0,0.0,50,0.00,,CLR,0.00,VWS V14.01,2013-05-25 15:27:00,
2013-05-25 11:37:00,59.5,39.8,30.18,ESE,104,0.0,0.0,48,0.00,,CLR,0.00,VWS V14.01,2013-05-25 15:37:00,
2013-05-25 11:42:00,59.5,40.3,30.18,ESE,110,0.0,0.0,49,0.00,,CLR,0.00,VWS V14.01,2013-05-25 15:42:00,
2013-05-25 11:47:00,59.6,41.0,30.18,ESE,110,0.0,0.0,50,0.00,,CLR,0.00,VWS V14.01,2013-05-25 15:47:00,
2013-05-25 11:52:00,59.9,40.7,30.18,ESE,112,0.0,0.0,49,0.00,,CLR,0.00,VWS V14.01,2013-05-25 15:52:00,
2013-05-25 12:02:00,59.9,40.2,30.18,ESE,112,0.0,0.0,48,0.00,,CLR,0.00,VWS V14.01,2013-05-25 16:02:00,
2013-05-25 12:12:00,61.2,40.3,30.18,ESE,112,0.0,0.0,46,0.00,,CLR,0.00,VWS V14.01,2013-05-25 16:12:00,
2013-05-25 12:22:00,59.8,40.6,30.18,ESE,119,0.0,0.0,49,0.00,,CLR,0.00,VWS V14.01,2013-05-25 16:22:00,
2013-05-25 12:27:00,60.2,40.5,30.18,SE,137,0.0,0.0,48,0.00,,CLR,0.00,VWS V14.01,2013-05-25 16:27:00,
2013-05-25 12:32:00,60.1,40.4,30.18,South,172,0.0,0.0,48,0.00,,CLR,0.00,VWS V14.01,2013-05-25 16:32:00,
2013-05-25 12:42:00,59.9,39.6,30.18,SSE,167,0.0,0.0,47,0.00,,CLR,0.00,VWS V14.01,2013-05-25 16:42:00,
2013-05-25 12:47:00,59.5,39.8,30.19,SSE,167,0.0,0.0,48,0.00,,CLR,0.00,VWS V14.01,2013-05-25 16:47:00,
2013-05-25 12:52:00,59.0,39.4,30.19,SSE,168,0.0,0.0,48,0.00,,CLR,0.00,VWS V14.01,2013-05-25 16:52:00,
2013-05-25 12:57:00,59.2,39.5,30.19,SSE,168,0.0,0.0,48,0.00,,CLR,0.00,VWS V14.01,2013-05-25 16:57:00,
2013-05-25 13:02:00,59.8,39.5,30.19,SSE,167,0.0,0.0,47,0.00,,CLR,0.00,VWS V14.01,2013-05-25 17:02:00,
2013-05-25 13:12:00,60.2,39.4,30.19,South,181,0.0,0.0,46,0.00,,CLR,0.00,VWS V14.01,2013-05-25 17:12:00,
2013-05-25 13:17:00,60.5,39.1,30.19,South,181,0.0,0.0,45,0.00,,CLR,0.00,VWS V14.01,2013-05-25 17:17:00,
2013-05-25 13:22:00,61.5,38.8,30.19,South,181,0.0,0.0,43,0.00,,CLR,0.00,VWS V14.01,2013-05-25 17:22:00,
2013-05-25 13:27:00,60.1,38.7,30.19,South,181,0.0,0.0,45,0.00,,CLR,0.00,VWS V14.01,2013-05-25 17:27:00,
2013-05-25 13:32:00,59.5,39.3,30.19,South,181,0.0,0.0,47,0.00,,CLR,0.00,VWS V14.01,2013-05-25 17:32:00,
2013-05-25 13:42:00,61.0,38.4,30.19,South,181,0.0,0.0,43,0.00,,CLR,0.00,VWS V14.01,2013-05-25 17:42:00,
2013-05-25 13:47:00,60.7,38.1,30.18,South,181,0.0,0.0,43,0.00,,CLR,0.00,VWS V14.01,2013-05-25 17:47:00,
2013-05-25 13:52:00,60.4,38.4,30.18,South,178,0.0,0.0,44,0.00,,CLR,0.00,VWS V14.01,2013-05-25 17:52:00,
2013-05-25 13:57:00,59.8,37.9,30.18,South,178,0.0,0.0,44,0.00,,CLR,0.00,VWS V14.01,2013-05-25 17:57:00,
2013-05-25 14:02:00,59.5,38.2,30.18,South,178,0.0,0.0,45,0.00,,CLR,0.00,VWS V14.01,2013-05-25 18:02:00,
2013-05-25 14:12:00,59.5,37.6,30.18,South,179,0.0,0.0,44,0.00,,CLR,0.00,VWS V14.01,2013-05-25 18:12:00,
2013-05-25 14:22:00,59.3,36.8,30.18,South,182,0.0,0.0,43,0.00,,CLR,0.00,VWS V14.01,2013-05-25 18:22:00,
2013-05-25 14:27:00,59.5,37.0,30.18,South,182,0.0,0.0,43,0.00,,CLR,0.00,VWS V14.01,2013-05-25 18:27:00,
2013-05-25 14:32:00,60.1,37.5,30.17,South,182,0.0,0.0,43,0.00,,CLR,0.00,VWS V14.01,2013-05-25 18:32:00,
2013-05-25 14:37:00,59.9,37.4,30.17,South,182,0.0,0.0,43,0.00,,CLR,0.00,VWS V14.01,2013-05-25 18:37:00,
2013-05-25 14:47:00,60.1,37.5,30.17,South,182,0.0,0.0,43,0.00,,CLR,0.00,VWS V14.01,2013-05-25 18:47:00,
2013-05-25 14:52:00,60.4,37.2,30.17,South,182,0.0,0.0,42,0.00,,CLR,0.00,VWS V14.01,2013-05-25 18:52:00,
2013-05-25 14:57:00,60.1,38.1,30.17,SW,224,0.0,0.0,44,0.00,,CLR,0.00,VWS V14.01,2013-05-25 18:57:00,
2013-05-25 15:02:00,59.6,39.9,30.16,WSW,253,0.0,0.0,48,0.00,,CLR,0.00,VWS V14.01,2013-05-25 19:02:00,
2013-05-25 15:12:00,59.9,39.1,30.16,WSW,240,0.0,0.0,46,0.00,,CLR,0.00,VWS V14.01,2013-05-25 19:12:00,
2013-05-25 15:17:00,59.6,38.2,30.15,WSW,244,0.0,0.0,45,0.00,,CLR,0.00,VWS V14.01,2013-05-25 19:17:00,
2013-05-25 15:22:00,59.9,38.5,30.15,WSW,243,0.0,0.0,45,0.00,,CLR,0.00,VWS V14.01,2013-05-25 19:22:00,
2013-05-25 15:32:00,60.4,39.0,30.14,WSW,244,0.0,0.0,45,0.00,,CLR,0.00,VWS V14.01,2013-05-25 19:32:00,
2013-05-25 15:37:00,60.4,39.0,30.14,WSW,243,0.0,0.0,45,0.00,,CLR,0.00,VWS V14.01,2013-05-25 19:37:00,
2013-05-25 15:42:00,60.9,39.4,30.14,SW,217,0.0,0.0,45,0.00,,CLR,0.00,VWS V14.01,2013-05-25 19:42:00,
2013-05-25 15:52:00,60.1,38.7,30.14,SW,217,0.0,0.0,45,0.00,,CLR,0.00,VWS V14.01,2013-05-25 19:52:00,
2013-05-25 15:57:00,60.1,38.7,30.14,SW,217,0.0,0.0,45,0.00,,CLR,0.00,VWS V14.01,2013-05-25 19:57:00,
2013-05-25 16:02:00,59.9,38.5,30.15,SW,217,0.0,0.0,45,0.00,,CLR,0.00,VWS V14.01,2013-05-25 20:02:00,
2013-05-25 16:12:00,60.5,39.1,30.15,SW,217,0.0,0.0,45,0.00,,CLR,0.00,VWS V14.01,2013-05-25 20:12:00,
2013-05-25 16:17:00,60.9,39.4,30.14,SW,217,0.0,0.0,45,0.00,,CLR,0.00,VWS V14.01,2013-05-25 20:17:00,
2013-05-25 16:22:00,61.3,39.2,30.14,SSW,196,0.0,0.0,44,0.00,,CLR,0.00,VWS V14.01,2013-05-25 20:22:00,
2013-05-25 16:32:00,61.6,39.5,30.13,SSW,196,0.0,0.0,44,0.00,,CLR,0.00,VWS V14.01,2013-05-25 20:32:00,
2013-05-25 16:37:00,62.6,39.2,30.13,South,186,0.0,0.0,42,0.00,,CLR,0.00,VWS V14.01,2013-05-25 20:37:00,
2013-05-25 16:42:00,63.4,38.7,30.13,South,179,0.0,0.0,40,0.00,,CLR,0.00,VWS V14.01,2013-05-25 20:42:00,
2013-05-25 16:52:00,63.9,38.5,30.12,South,181,0.0,0.0,39,0.00,,CLR,0.00,VWS V14.01,2013-05-25 20:52:00,
2013-05-25 16:57:00,63.5,38.8,30.12,South,181,0.0,0.0,40,0.00,,CLR,0.00,VWS V14.01,2013-05-25 20:57:00,
2013-05-25 17:07:00,63.7,38.3,30.12,South,178,0.0,0.0,39,0.00,,CLR,0.00,VWS V14.01,2013-05-25 21:07:00,
2013-05-25 17:12:00,63.7,37.6,30.12,South,179,0.0,0.0,38,0.00,,CLR,0.00,VWS V14.01,2013-05-25 21:12:00,
2013-05-25 17:22:00,62.7,38.0,30.11,South,179,0.0,0.0,40,0.00,,CLR,0.00,VWS V14.01,2013-05-25 21:22:00,
2013-05-25 17:27:00,62.3,38.9,30.11,South,178,0.0,0.0,42,0.00,,CLR,0.00,VWS V14.01,2013-05-25 21:27:00,
2013-05-25 17:32:00,62.6,38.0,30.11,South,178,0.0,0.0,40,0.00,,CLR,0.00,VWS V14.01,2013-05-25 21:32:00,
2013-05-25 17:42:00,62.7,38.0,30.11,South,178,0.0,0.0,40,0.00,,CLR,0.00,VWS V14.01,2013-05-25 21:42:00,
2013-05-25 17:47:00,62.4,39.0,30.11,South,178,0.0,0.0,42,0.00,,CLR,0.00,VWS V14.01,2013-05-25 21:47:00,
2013-05-25 17:52:00,62.9,38.9,30.11,South,178,0.0,0.0,41,0.00,,CLR,0.00,VWS V14.01,2013-05-25 21:52:00,
2013-05-25 17:57:00,63.7,37.6,30.11,South,175,0.0,0.0,38,0.00,,CLR,0.00,VWS V14.01,2013-05-25 21:57:00,
2013-05-25 18:02:00,63.9,37.8,30.09,South,175,0.0,0.0,38,0.00,,CLR,0.00,VWS V14.01,2013-05-25 22:02:00,
2013-05-25 18:12:00,63.2,37.9,30.09,South,175,0.0,0.0,39,0.00,,CLR,0.00,VWS V14.01,2013-05-25 22:12:00,
2013-05-25 18:17:00,63.2,37.9,30.09,South,175,0.0,0.0,39,0.00,,CLR,0.00,VWS V14.01,2013-05-25 22:17:00,
2013-05-25 18:22:00,63.1,37.8,30.09,South,175,0.0,0.0,39,0.00,,CLR,0.00,VWS V14.01,2013-05-25 22:22:00,
2013-05-25 18:27:00,63.1,37.8,30.09,South,175,0.0,0.0,39,0.00,,CLR,0.00,VWS V14.01,2013-05-25 22:27:00,
2013-05-25 18:32:00,63.1,38.4,30.08,South,175,0.0,0.0,40,0.00,,CLR,0.00,VWS V14.01,2013-05-25 22:32:00,
2013-05-25 18:37:00,63.2,38.5,30.08,South,175,0.0,0.0,40,0.00,,CLR,0.00,VWS V14.01,2013-05-25 22:37:00,
2013-05-25 18:42:00,63.2,38.5,30.08,South,175,0.0,0.0,40,0.00,,CLR,0.00,VWS V14.01,2013-05-25 22:42:00,
2013-05-25 18:47:00,63.2,38.5,30.09,South,175,0.0,0.0,40,0.00,,CLR,0.00,VWS V14.01,2013-05-25 22:47:00,
2013-05-25 18:52:00,62.9,38.9,30.09,South,175,0.0,0.0,41,0.00,,CLR,0.00,VWS V14.01,2013-05-25 22:52:00,
2013-05-25 18:57:00,62.3,38.3,30.09,South,175,0.0,0.0,41,0.00,,CLR,0.00,VWS V14.01,2013-05-25 22:57:00,
2013-05-25 19:02:00,61.8,38.5,30.10,South,175,0.0,0.0,42,0.00,,CLR,0.00,VWS V14.01,2013-05-25 23:02:00,
2013-05-25 19:07:00,61.5,38.8,30.10,South,175,0.0,0.0,43,0.00,,CLR,0.00,VWS V14.01,2013-05-25 23:07:00,
2013-05-25 19:12:00,61.5,38.8,30.10,South,175,0.0,0.0,43,0.00,,CLR,0.00,VWS V14.01,2013-05-25 23:12:00,
2013-05-25 19:17:00,61.3,38.6,30.10,South,176,0.0,0.0,43,0.00,,CLR,0.00,VWS V14.01,2013-05-25 23:17:00,
2013-05-25 19:27:00,61.2,38.5,30.10,South,176,0.0,0.0,43,0.00,,CLR,0.00,VWS V14.01,2013-05-25 23:27:00,
2013-05-25 19:32:00,61.3,39.2,30.10,South,176,0.0,0.0,44,0.00,,CLR,0.00,VWS V14.01,2013-05-25 23:32:00,
2013-05-25 19:42:00,61.2,38.5,30.10,South,176,0.0,0.0,43,0.00,,CLR,0.00,VWS V14.01,2013-05-25 23:42:00,
2013-05-25 19:47:00,61.0,39.0,30.10,South,176,0.0,0.0,44,0.00,,CLR,0.00,VWS V14.01,2013-05-25 23:47:00,
2013-05-25 19:52:00,61.0,39.0,30.10,South,176,0.0,0.0,44,0.00,,CLR,0.00,VWS V14.01,2013-05-25 23:52:00,
2013-05-25 20:02:00,61.2,38.5,30.10,South,176,0.0,0.0,43,0.00,,CLR,0.00,VWS V14.01,2013-05-26 00:02:00,
2013-05-25 20:12:00,61.3,39.2,30.10,South,176,0.0,0.0,44,0.00,,CLR,0.00,VWS V14.01,2013-05-26 00:12:00,
2013-05-25 20:17:00,61.3,39.2,30.09,South,176,0.0,0.0,44,0.00,,CLR,0.00,VWS V14.01,2013-05-26 00:17:00,
2013-05-25 20:22:00,61.2,40.3,30.09,South,176,0.0,0.0,46,0.00,,CLR,0.00,VWS V14.01,2013-05-26 00:22:00,
2013-05-25 20:32:00,61.0,40.1,30.09,South,176,0.0,0.0,46,0.00,,CLR,0.00,VWS V14.01,2013-05-26 00:32:00,
2013-05-25 20:37:00,60.9,40.5,30.09,South,176,0.0,0.0,47,0.00,,CLR,0.00,VWS V14.01,2013-05-26 00:37:00,
2013-05-25 20:42:00,60.7,40.9,30.09,South,176,0.0,0.0,48,0.00,,CLR,0.00,VWS V14.01,2013-05-26 00:42:00,
2013-05-25 20:52:00,60.5,40.7,30.09,South,176,0.0,0.0,48,0.00,,CLR,0.00,VWS V14.01,2013-05-26 00:52:00,
2013-05-25 20:57:00,60.4,40.6,30.09,South,176,0.0,0.0,48,0.00,,CLR,0.00,VWS V14.01,2013-05-26 00:57:00,
2013-05-25 21:07:00,59.9,41.2,30.09,South,176,0.0,0.0,50,0.00,,SCT110,0.00,VWS V14.01,2013-05-26 01:07:00,
2013-05-25 21:12:00,59.8,41.7,30.09,South,176,0.0,0.0,51,0.00,,SCT110,0.00,VWS V14.01,2013-05-26 01:12:00,
2013-05-25 21:17:00,59.8,42.2,30.08,South,176,0.0,0.0,52,0.00,,SCT110,0.00,VWS V14.01,2013-05-26 01:17:00,
2013-05-25 21:22:00,59.6,42.5,30.08,South,176,0.0,0.0,53,0.00,,SCT110,0.00,VWS V14.01,2013-05-26 01:22:00,
2013-05-25 21:27:00,59.3,42.7,30.08,South,176,0.0,1.0,54,0.00,,SCT110,0.00,VWS V14.01,2013-05-26 01:27:00,
2013-05-25 21:32:00,59.2,43.1,30.09,South,176,0.0,2.0,55,0.00,,SCT110,0.00,VWS V14.01,2013-05-26 01:32:00,
2013-05-25 21:37:00,58.9,43.2,30.09,South,176,0.0,1.0,56,0.00,,SCT110,0.00,VWS V14.01,2013-05-26 01:37:00,
2013-05-25 21:47:00,58.6,40.5,30.09,South,176,1.0,3.0,51,0.00,,SCT110,0.00,VWS V14.01,2013-05-26 01:47:00,
2013-05-25 21:52:00,58.7,40.6,30.09,South,176,2.0,3.0,51,0.00,,SCT110,0.00,VWS V14.01,2013-05-26 01:52:00,
2013-05-25 22:02:00,58.7,40.1,30.10,South,176,2.0,4.0,50,0.00,,SCT120,0.00,VWS V14.01,2013-05-26 02:02:00,
2013-05-25 22:12:00,58.7,40.6,30.10,South,179,3.0,6.0,51,0.00,,SCT120,0.00,VWS V14.01,2013-05-26 02:12:00,
2013-05-25 22:17:00,58.6,41.0,30.10,South,186,5.0,7.0,52,0.00,,SCT120,0.00,VWS V14.01,2013-05-26 02:17:00,
2013-05-25 22:22:00,58.4,40.9,30.10,South,188,6.0,6.0,52,0.00,,SCT120,0.00,VWS V14.01,2013-05-26 02:22:00,
2013-05-25 22:27:00,58.3,41.8,30.10,SSW,212,2.0,7.0,54,0.00,,SCT120,0.00,VWS V14.01,2013-05-26 02:27:00,
2013-05-25 22:32:00,58.1,42.0,30.11,SW,216,5.0,6.0,55,0.00,,SCT120,0.00,VWS V14.01,2013-05-26 02:32:00,
2013-05-25 22:42:00,58.0,42.9,30.11,SW,217,4.0,5.0,57,0.00,,SCT120,0.00,VWS V14.01,2013-05-26 02:42:00,
2013-05-25 22:47:00,57.8,43.1,30.10,SW,217,0.0,5.0,58,0.00,,SCT120,0.00,VWS V14.01,2013-05-26 02:47:00,
2013-05-25 22:52:00,57.6,43.4,30.10,SW,217,0.0,3.0,59,0.00,,SCT120,0.00,VWS V14.01,2013-05-26 02:52:00,
2013-05-25 22:57:00,57.5,43.7,30.10,SW,217,0.0,0.0,60,0.00,,SCT120,0.00,VWS V14.01,2013-05-26 02:57:00,
2013-05-25 23:02:00,57.5,44.2,30.10,SW,217,0.0,0.0,61,0.00,,OVC110,0.00,VWS V14.01,2013-05-26 03:02:00,
2013-05-25 23:12:00,57.3,44.0,30.10,SW,217,0.0,0.0,61,0.00,,OVC110,0.00,VWS V14.01,2013-05-26 03:12:00,
2013-05-25 23:22:00,57.0,44.5,30.10,SW,217,0.0,0.0,63,0.00,,OVC110,0.00,VWS V14.01,2013-05-26 03:22:00,
2013-05-25 23:27:00,56.9,44.9,30.10,SW,217,0.0,0.0,64,0.00,,OVC110,0.00,VWS V14.01,2013-05-26 03:27:00,
2013-05-25 23:32:00,56.7,45.1,30.10,SW,217,0.0,0.0,65,0.00,,OVC110,0.00,VWS V14.01,2013-05-26 03:32:00,
2013-05-25 23:37:00,56.7,45.1,30.10,SW,217,0.0,0.0,65,0.00,,OVC110,0.00,VWS V14.01,2013-05-26 03:37:00,
2013-05-25 23:42:00,56.6,45.0,30.10,SW,217,0.0,0.0,65,0.00,,OVC110,0.00,VWS V14.01,2013-05-26 03:42:00,
2013-05-25 23:47:00,56.5,45.3,30.11,SW,217,0.0,0.0,66,0.00,,OVC110,0.00,VWS V14.01,2013-05-26 03:47:00,
2013-05-25 23:57:00,56.2,45.4,30.11,SW,230,0.0,0.0,67,0.00,,OVC110,0.00,VWS V14.01,2013-05-26 03:57:00,